Change the Weather History Date:

Saturday, May 25, 2013

  Actual Average Record
Temperature  
Mean Temperature 44 °F -  
Max Temperature 59 °F 67 °F 86 °F (1972)
Min Temperature 30 °F 47 °F 30 °F (2013)
Degree Days  
Heating Degree Days 20    
Moisture  
Dew Point 31 °F    
Average Humidity 60    
Maximum Humidity 93    
Minimum Humidity 34    
Precipitation  
Precipitation 0.00 in - - ()
Sea Level Pressure  
Sea Level Pressure 30.28 in    
Wind  
Wind Speed 5 mph (WNW)    
Max Wind Speed 14 mph    
Max Gust Speed 23 mph    
Visibility 10 miles    
Events      
Averages and records for this station are not official NWS values.
T = Trace of Precipitation, MM = Missing Value Source: NWS Daily Summary

Daily Weather History Graph

Daily Weather History Graph

Search for Another Location

Airport or City:

Trip Planner

Search our weather history database for the weather conditions in past years. The results will help you decide how hot, cold, wet, or windy it might be!

Date:

Astronomy

May. 25, 2013 Rise Set
Actual Time 5:54 AM EDT 8:39 PM EDT
Civil Twilight 5:22 AM EDT 9:11 PM EDT
Nautical Twilight 4:41 AM EDT 9:52 PM EDT
Astronomical Twilight 3:55 AM EDT 10:38 PM EDT
Moon 9:25 PM EDT (5/25) 6:19 AM EDT (5/25)
Length of Visible Light 15h 49m
Length of Day
14h 45m
Full, 100% of the Moon is Illuminated
May 25
Full
May 31
Last Quarter
Jun 8
New
Jun 16
First Quarter
Jun 23
Full

Hourly Weather History & Observations

Time (EDT) Temp. Windchill Dew Point Humidity Pressure Visibility Wind Dir Wind Speed Gust Speed Precip Events Conditions
12:15 AM 35.6 °F 32.8 °F 28.4 °F 75% 30.29 in 10.0 mi WSW 3.5 mph - N/A   Clear
12:35 AM 35.6 °F - 28.4 °F 75% 30.29 in 10.0 mi Calm Calm - N/A   Clear
12:55 AM 33.8 °F - 28.4 °F 81% 30.29 in 10.0 mi Calm Calm - N/A   Clear
1:15 AM 33.8 °F 30.8 °F 30.2 °F 87% 30.29 in 10.0 mi West 3.5 mph - N/A   Clear
1:35 AM 33.8 °F - 28.4 °F 81% 30.29 in 10.0 mi Calm Calm - N/A   Clear
1:55 AM 33.8 °F - 28.4 °F 81% 30.29 in 10.0 mi Calm Calm - N/A   Scattered Clouds
2:15 AM 32.0 °F - 28.4 °F 87% 30.29 in 8.0 mi Calm Calm - N/A   Scattered Clouds
2:35 AM 32.0 °F 27.5 °F 28.4 °F 87% 30.28 in 10.0 mi WSW 4.6 mph - N/A   Partly Cloudy
2:55 AM 32.0 °F 28.7 °F 28.4 °F 87% 30.29 in 10.0 mi WSW 3.5 mph - N/A   Scattered Clouds
3:15 AM 32.0 °F - 28.4 °F 87% 30.29 in 10.0 mi Calm Calm - N/A   Scattered Clouds
3:35 AM 32.0 °F 28.7 °F 28.4 °F 87% 30.28 in 10.0 mi WSW 3.5 mph - N/A   Partly Cloudy
3:55 AM 32.0 °F 28.7 °F 28.4 °F 87% 30.29 in 10.0 mi WSW 3.5 mph - N/A   Clear
4:15 AM 33.8 °F - 28.4 °F 81% 30.29 in 10.0 mi Calm Calm - N/A   Partly Cloudy
4:35 AM 32.0 °F - 28.4 °F 87% 30.28 in 10.0 mi Calm Calm - N/A   Clear
4:55 AM 30.2 °F 26.7 °F 28.4 °F 93% 30.28 in 10.0 mi SW 3.5 mph - N/A   Clear
5:15 AM 32.0 °F 28.7 °F 28.4 °F 87% 30.29 in 8.0 mi WSW 3.5 mph - N/A   Clear
5:35 AM 30.2 °F 25.4 °F 28.4 °F 93% 30.29 in 9.0 mi WSW 4.6 mph - N/A   Clear
5:55 AM 32.0 °F 27.5 °F 28.4 °F 87% 30.29 in 7.0 mi WSW 4.6 mph - N/A   Clear
6:15 AM 32.0 °F 27.5 °F 28.4 °F 87% 30.30 in 8.0 mi West 4.6 mph - N/A   Clear
6:35 AM 33.8 °F 29.6 °F 30.2 °F 87% 30.31 in 8.0 mi West 4.6 mph - N/A   Clear
6:55 AM 33.8 °F 28.6 °F 30.2 °F 87% 30.30 in 7.0 mi West 5.8 mph - N/A   Clear
7:15 AM 35.6 °F 30.7 °F 32.0 °F 87% 30.31 in 8.0 mi West 5.8 mph - N/A   Clear
7:35 AM 37.4 °F 32.8 °F 33.8 °F 87% 30.31 in 10.0 mi West 5.8 mph - N/A   Clear
7:55 AM 39.2 °F 35.9 °F 33.8 °F 81% 30.31 in 10.0 mi WNW 4.6 mph - N/A   Clear
8:15 AM 41.0 °F 38.0 °F 35.6 °F 81% 30.30 in 10.0 mi WNW 4.6 mph - N/A   Clear
8:35 AM 42.8 °F 37.5 °F 35.6 °F 76% 30.31 in 10.0 mi WNW 9.2 mph - N/A   Partly Cloudy
8:55 AM 44.6 °F 41.4 °F 35.6 °F 71% 30.31 in 10.0 mi WNW 5.8 mph - N/A   Scattered Clouds
9:15 AM 44.6 °F 41.4 °F 35.6 °F 71% 30.32 in 10.0 mi WNW 5.8 mph - N/A   Partly Cloudy
9:35 AM 46.4 °F 44.3 °F 35.6 °F 66% 30.32 in 10.0 mi NW 4.6 mph - N/A   Clear
9:55 AM 48.2 °F - 35.6 °F 62% 30.32 in 10.0 mi WNW 5.8 mph - N/A   Partly Cloudy
10:15 AM 48.2 °F - 35.6 °F 62% 30.31 in 10.0 mi WNW 5.8 mph - N/A   Partly Cloudy
10:35 AM 50.0 °F - 33.8 °F 54% 30.30 in 10.0 mi West 10.4 mph - N/A   Scattered Clouds
10:55 AM 51.8 °F - 35.6 °F 54% 30.32 in 10.0 mi West 9.2 mph - N/A   Mostly Cloudy
11:15 AM 50.0 °F - 33.8 °F 54% 30.32 in 10.0 mi NNW 8.1 mph 17.3 mph N/A   Overcast
11:35 AM 51.8 °F - 33.8 °F 50% 30.32 in 10.0 mi NW 9.2 mph 20.7 mph N/A   Mostly Cloudy
11:55 AM 51.8 °F - 33.8 °F 50% 30.31 in 10.0 mi WNW 8.1 mph 19.6 mph N/A   Mostly Cloudy
12:15 PM 53.6 °F - 33.8 °F 47% 30.30 in 10.0 mi West 12.7 mph 17.3 mph N/A   Mostly Cloudy
12:35 PM 55.4 °F - 35.6 °F 47% 30.29 in 10.0 mi NNW 6.9 mph 19.6 mph N/A   Scattered Clouds
12:55 PM 53.6 °F - 33.8 °F 47% 30.28 in 10.0 mi NNW 10.4 mph 20.7 mph N/A   Scattered Clouds
1:15 PM 55.4 °F - 35.6 °F 47% 30.27 in 10.0 mi NW 8.1 mph 17.3 mph N/A   Partly Cloudy
1:35 PM 55.4 °F - 33.8 °F 44% 30.28 in 10.0 mi WNW 8.1 mph 18.4 mph N/A   Partly Cloudy
1:55 PM 57.2 °F - 33.8 °F 41% 30.28 in 10.0 mi WNW 10.4 mph 23.0 mph N/A   Scattered Clouds
2:15 PM 57.2 °F - 33.8 °F 41% 30.27 in 10.0 mi WNW 12.7 mph 21.9 mph N/A   Scattered Clouds
2:35 PM 57.2 °F - 33.8 °F 41% 30.27 in 10.0 mi WNW 10.4 mph 19.6 mph N/A   Partly Cloudy
2:55 PM 57.2 °F - 32.0 °F 38% 30.26 in 10.0 mi NNW 13.8 mph 20.7 mph N/A   Clear
3:15 PM 57.2 °F - 33.8 °F 41% 30.26 in 10.0 mi WNW 6.9 mph 16.1 mph N/A   Partly Cloudy
3:35 PM 59.0 °F - 33.8 °F 39% 30.26 in 10.0 mi NW 10.4 mph 20.7 mph N/A   Partly Cloudy
3:55 PM 59.0 °F - 32.0 °F 36% 30.26 in 10.0 mi NW 8.1 mph 19.6 mph N/A   Partly Cloudy
4:15 PM 59.0 °F - 32.0 °F 36% 30.26 in 10.0 mi West 12.7 mph 21.9 mph N/A   Clear
4:35 PM 59.0 °F - 32.0 °F 36% 30.26 in 10.0 mi WNW 11.5 mph 20.7 mph N/A   Clear
4:55 PM 59.0 °F - 30.2 °F 34% 30.26 in 10.0 mi WNW 13.8 mph 21.9 mph N/A   Clear
5:15 PM 57.2 °F - 30.2 °F 36% 30.26 in 10.0 mi WNW 8.1 mph 17.3 mph N/A   Clear
5:35 PM 57.2 °F - 32.0 °F 38% 30.26 in 10.0 mi NW 11.5 mph 17.3 mph N/A   Clear
5:55 PM 57.2 °F - 32.0 °F 38% 30.26 in 10.0 mi WNW 11.5 mph 18.4 mph N/A   Clear
6:15 PM 57.2 °F - 32.0 °F 38% 30.26 in 10.0 mi NW 10.4 mph 20.7 mph N/A   Clear
6:35 PM 57.2 °F - 32.0 °F 38% 30.25 in 10.0 mi NW 9.2 mph 19.6 mph N/A   Clear
6:55 PM 57.2 °F - 30.2 °F 36% 30.26 in 10.0 mi NW 10.4 mph - N/A   Clear
7:15 PM 55.4 °F - 30.2 °F 38% 30.25 in 10.0 mi NW 5.8 mph - N/A   Clear
7:35 PM 55.4 °F - 30.2 °F 38% 30.25 in 10.0 mi NW 9.2 mph - N/A   Clear
7:55 PM 53.6 °F - 30.2 °F 41% 30.25 in 10.0 mi WNW 5.8 mph - N/A   Clear
8:15 PM 53.6 °F - 30.2 °F 41% 30.25 in 10.0 mi WNW 4.6 mph - N/A   Clear
8:35 PM 51.8 °F - 30.2 °F 44% 30.25 in 10.0 mi WNW 3.5 mph - N/A   Clear
8:55 PM 50.0 °F - 30.2 °F 47% 30.25 in 10.0 mi WNW 3.5 mph - N/A   Clear
9:15 PM 48.2 °F - 30.2 °F 50% 30.25 in 10.0 mi WNW 3.5 mph - N/A   Clear
9:35 PM 48.2 °F - 28.4 °F 46% 30.26 in 10.0 mi Calm Calm - N/A   Clear
9:55 PM 48.2 °F - 28.4 °F 46% 30.26 in 10.0 mi WNW 4.6 mph - N/A   Clear
10:15 PM 46.4 °F - 28.4 °F 50% 30.26 in 10.0 mi Calm Calm - N/A   Clear
10:35 PM 46.4 °F - 28.4 °F 50% 30.26 in 10.0 mi Calm Calm - N/A   Clear
10:55 PM 44.6 °F 43.1 °F 28.4 °F 53% 30.25 in 10.0 mi West 3.5 mph - N/A   Clear
11:15 PM 44.6 °F 43.1 °F 30.2 °F 57% 30.26 in 10.0 mi West 3.5 mph - N/A   Clear
11:35 PM 42.8 °F 40.1 °F 30.2 °F 61% 30.26 in 10.0 mi West 4.6 mph - N/A   Clear
11:55 PM 42.8 °F 40.1 °F 28.4 °F 57% 30.26 in 10.0 mi West 4.6 mph - N/A   Clear